Theta_e
314 314 314 314 314 314 314 314 314 314 314 314 314 315 315 316 316 316 316 316 316 316 315 315 315 315 313 309 310 324 335 328 317 310 307 309 306 307 302 304 305 303 305 308 309 309 309
315 315 314 314 314 314 314 314 313 313 313 313 314 314 314 314 315 316 316 316 316 315 315 315 315 315 311 304 315 323 319 317 316 313 309 310 309 310 306 306 304 307 306 307 308 308 308
316 316 315 315 315 315 314 314 313 313 313 313 314 314 314 314 314 315 316 315 315 315 314 315 315 315 310 308 315 316 318 317 318 314 311 313 312 309 308 305 309 307 303 305 306 306 305
316 316 315 315 315 315 314 313 313 312 313 313 313 313 313 313 313 314 315 315 315 314 314 314 315 315 308 319 318 317 318 314 317 316 313 313 314 311 308 309 306 303 303 298 304 305 306
316 316 316 316 316 316 315 314 313 313 313 313 313 312 312 313 313 313 314 314 313 316 315 314 314 313 307 317 310 312 315 313 314 314 313 315 312 307 307 302 300 301 295 297 300 307 305
316 316 316 316 316 315 315 314 314 314 313 313 313 312 312 312 312 312 312 312 315 313 314 316 317 310 313 309 312 311 314 315 311 310 308 308 306 302 303 300 291 295 296 298 299 303 304
317 316 316 316 316 315 314 314 314 314 314 313 313 312 311 311 311 311 311 314 312 311 314 310 310 309 310 315 317 312 313 313 311 307 301 306 300 297 300 302 301 300 299 298 301 304 301
318 317 316 316 316 315 314 314 315 314 314 314 314 313 312 311 311 311 310 309 312 312 305 314 314 312 314 314 308 310 314 306 305 300 304 302 298 303 305 304 302 300 298 297 301 303 302
317 317 317 316 316 315 314 314 314 314 314 313 313 312 311 311 311 310 312 314 319 316 306 309 313 312 311 312 307 308 310 307 303 301 302 299 302 306 302 301 299 299 298 298 297 302 304
317 317 317 316 315 314 315 315 315 314 314 313 312 312 310 310 309 318 314 317 317 318 300 304 305 309 311 311 305 313 313 308 303 299 301 301 305 303 301 299 300 296 302 300 299 297 292
317 317 317 315 315 315 314 314 314 314 314 313 312 312 310 309 310 314 314 318 318 316 291 306 306 314 312 306 308 307 314 308 301 301 301 299 301 300 299 300 303 298 303 301 300 298 297
317 317 317 316 315 315 314 313 314 313 313 312 312 311 309 315 314 317 318 318 316 300 291 302 306 304 303 305 306 308 307 310 308 302 302 301 306 303 302 304 304 304 301 300 300 298 290
316 316 316 316 315 314 314 313 313 313 312 312 311 309 307 314 315 318 318 314 300 295 305 301 301 304 303 302 303 304 303 301 298 294 295 299 300 303 305 300 303 302 298 290 289 290 289
316 316 316 315 315 314 313 312 313 312 311 311 309 306 313 317 320 321 317 306 295 301 301 305 303 304 301 303 303 303 301 299 303 300 296 294 292 301 305 303 299 299 299 292 285 287 290
316 315 315 315 315 313 312 312 312 311 310 309 306 318 320 321 321 320 312 298 299 301 303 301 302 299 299 303 302 302 301 300 302 303 295 295 294 305 305 306 303 298 295 300 294 295 290
315 314 314 315 313 313 313 312 312 312 310 308 307 313 318 321 322 318 307 300 303 305 304 304 297 301 297 300 300 300 300 303 301 305 305 299 293 301 303 306 304 300 302 293 294 285 284
314 314 314 314 313 313 313 313 312 311 309 306 310 311 317 322 321 311 302 302 304 307 305 301 300 299 299 298 299 298 298 302 303 303 305 302 296 296 300 298 295 297 296 297 296 294 286
314 314 314 314 314 313 313 312 312 311 306 308 311 306 319 320 307 309 304 305 301 303 306 303 303 302 299 300 298 298 297 301 306 303 298 301 298 292 295 301 303 301 297 297 291 289 293
314 313 313 313 313 313 312 312 312 311 307 306 306 308 319 315 300 303 306 304 304 303 303 302 300 302 304 299 295 299 299 305 305 303 299 302 296 290 292 297 300 297 298 297 296 296 290
313 313 313 313 313 313 312 312 312 311 308 306 306 302 310 310 308 303 301 301 300 305 302 303 302 303 301 298 301 297 299 302 305 302 305 302 296 293 288 291 296 294 296 297 295 291 290
312 313 313 313 313 313 313 313 312 311 308 307 307 304 306 300 303 303 303 301 299 299 303 303 300 300 298 295 296 296 300 299 303 305 301 300 292 294 295 296 296 295 294 295 293 293 290
309 312 313 313 313 313 312 312 312 311 307 307 304 301 305 301 304 301 300 300 298 299 298 298 297 297 298 296 296 294 296 298 298 301 299 301 293 295 292 296 295 292 295 295 294 294 294
308 310 312 313 312 312 312 312 312 312 307 308 309 310 305 301 301 300 300 299 298 299 300 300 298 296 295 297 300 301 301 302 301 300 297 297 295 292 288 294 294 289 295 296 297 298 296
308 309 311 312 312 312 312 312 312 312 308 309 309 307 300 296 299 299 299 299 298 299 296 299 300 296 300 305 304 303 302 301 300 300 302 296 295 293 289 291 282 294 302 300 297 298 299
309 310 311 312 312 311 311 312 312 312 309 309 311 306 300 296 299 298 298 298 299 299 297 298 300 303 305 301 295 293 294 294 295 298 298 300 295 290 287 288 292 294 299 297 294 294 299
310 310 312 312 311 311 310 311 312 312 309 309 310 312 305 297 297 300 297 297 294 294 295 298 302 305 303 298 293 287 288 292 291 294 300 299 299 292 290 285 283 295 299 303 301 289 299
309 310 311 311 310 310 309 310 311 312 310 307 309 316 305 298 301 301 295 295 298 295 293 296 297 298 302 294 288 288 290 296 289 290 291 292 292 289 288 287 291 300 301 302 288 290 299
307 309 309 309 309 309 310 310 311 312 311 306 307 313 306 299 301 303 302 298 298 296 291 296 295 295 295 290 289 292 292 294 294 295 292 291 290 289 291 288 285 302 300 293 297 301 300
306 307 308 308 309 308 309 310 311 311 311 308 303 309 308 301 301 307 306 306 304 302 298 298 295 294 294 291 291 294 293 295 294 289 299 290 296 291 294 294 301 303 301 302 302 300 299
Wind_Speed
14 15 16 18 18 17 16 17 16 16 16 16 17 18 18 18 17 18 18 18 17 16 14 12 11 12 11 9 15 8 11 11 10 10 12 16 16 13 17 18 21 20 21 21 21 23 4
15 16 16 16 16 16 16 16 17 16 16 18 17 17 17 18 18 17 17 17 16 16 14 13 10 10 8 14 2 13 11 12 12 15 14 17 14 13 16 17 18 17 20 18 13 17 12
16 16 17 17 17 17 17 17 17 18 18 17 18 18 17 17 18 18 18 17 17 16 14 12 9 8 11 20 4 2 11 11 10 9 12 10 15 16 10 15 15 15 11 15 22 14 17
15 16 16 17 16 17 18 18 18 19 18 19 19 19 19 18 19 19 19 20 17 19 13 10 8 7 10 13 4 13 12 13 12 7 11 11 6 14 15 17 5 13 13 15 16 19 16
14 15 16 15 15 16 16 18 17 17 19 18 19 20 21 20 21 21 20 19 23 16 9 9 9 9 9 2 8 11 13 13 11 9 8 6 8 12 17 12 10 12 14 19 21 26 13
14 14 15 15 15 15 16 17 17 18 18 19 19 20 21 21 21 20 20 23 9 3 6 10 10 9 9 11 9 11 11 11 7 9 10 10 9 12 14 13 13 17 20 15 18 16 12
15 16 15 16 16 15 16 17 18 18 18 20 20 20 21 23 22 19 15 4 6 7 12 11 11 9 3 5 5 5 11 10 10 9 13 14 12 14 17 18 19 19 15 16 7 3 3
14 15 16 15 16 16 16 17 18 19 20 21 21 21 22 23 23 18 12 8 8 11 11 21 21 15 16 3 7 11 11 9 12 13 13 12 14 16 15 14 11 11 12 14 14 12 10
14 15 15 16 16 16 17 18 18 19 20 20 22 22 23 24 24 13 13 13 12 12 8 11 14 20 14 12 12 13 13 14 12 12 14 15 14 13 5 10 11 13 14 15 15 14 10
15 15 15 16 15 16 17 18 19 21 20 22 23 24 23 25 9 7 10 4 6 3 6 9 7 5 6 10 11 11 15 12 9 16 14 15 18 14 9 11 12 13 14 15 12 9 10
15 15 14 14 17 17 18 18 19 21 22 22 24 25 24 17 11 5 7 7 7 4 3 7 9 8 13 14 13 15 10 12 15 16 10 14 15 11 14 10 10 9 11 8 10 13 15
14 14 14 14 14 17 18 18 19 20 22 23 25 25 24 4 7 13 9 6 6 7 3 5 8 9 11 16 5 12 12 14 11 13 17 16 12 13 9 11 7 5 10 14 15 15 15
14 14 13 14 14 15 18 18 19 19 22 23 26 29 18 10 5 9 8 8 5 6 7 4 2 10 14 10 12 10 14 13 11 10 11 13 14 15 17 16 13 15 12 11 12 11 14
12 13 13 14 14 14 16 17 18 20 22 24 28 31 9 10 9 8 7 9 8 9 10 5 5 9 11 9 10 10 7 10 11 11 13 11 14 11 7 18 13 11 10 7 8 11 15
12 12 14 13 13 14 14 17 18 20 23 22 29 8 8 8 9 5 8 7 5 7 8 10 11 12 14 6 5 1 7 10 9 8 5 11 10 13 14 11 5 5 7 5 8 13 11
11 11 13 13 13 14 14 15 18 20 22 25 10 7 12 4 5 6 9 15 9 6 7 9 11 11 8 4 4 4 10 1 7 12 4 3 10 9 14 12 11 13 10 9 6 5 12
11 11 12 13 13 14 14 15 17 19 22 32 5 6 7 6 5 7 10 3 3 10 5 6 13 14 13 12 6 10 4 3 5 6 6 9 6 8 11 11 11 8 10 12 5 7 4
12 11 12 13 13 14 15 15 16 17 23 12 6 5 7 2 8 9 10 5 2 6 4 4 6 11 11 13 13 17 14 6 9 3 4 5 4 11 16 16 14 13 11 8 8 7 10
11 12 12 12 13 13 14 14 14 13 12 8 7 9 7 3 7 8 4 2 4 6 3 3 3 11 13 11 9 10 9 4 3 5 0 2 4 9 11 15 16 9 8 10 10 9 12
13 13 12 11 11 13 14 13 14 13 8 6 6 5 4 3 1 6 10 10 6 5 3 6 9 9 10 14 10 7 11 4 8 3 9 1 8 11 11 6 6 15 15 14 12 8 12
14 13 12 11 11 12 13 13 13 14 9 5 6 4 4 5 5 7 8 11 12 5 6 4 4 9 6 6 9 7 8 6 14 6 6 7 12 14 16 18 16 19 19 19 17 17 17
15 14 13 10 10 10 12 14 12 13 17 5 6 6 11 11 7 7 5 2 7 6 3 5 5 9 8 9 9 14 10 9 7 2 8 5 9 11 15 17 19 20 19 17 18 17 20
15 13 14 11 10 10 10 10 10 11 10 4 7 5 6 9 8 6 4 4 4 5 6 2 5 7 9 9 7 11 11 12 12 8 3 4 3 4 7 12 14 11 13 10 6 8 11
14 13 13 12 10 9 9 9 9 8 6 6 6 8 6 9 9 5 7 8 8 8 8 12 8 8 6 10 13 15 17 16 14 14 14 7 8 5 6 12 11 6 9 5 9 9 15
15 12 13 11 9 9 9 8 9 7 6 6 7 4 3 8 11 9 8 8 9 10 7 10 8 5 6 6 6 8 7 7 13 17 14 14 8 3 4 8 13 11 6 7 7 9 15
14 11 11 9 8 8 9 9 9 7 6 6 5 5 3 4 2 9 9 6 6 7 9 7 5 4 4 2 2 5 3 2 2 4 15 15 16 8 7 5 4 7 0 7 10 6 15
11 9 11 9 7 7 9 10 11 8 8 3 4 4 3 6 8 4 4 4 3 4 5 10 4 1 4 1 2 5 6 6 4 6 6 8 4 10 11 7 7 8 11 10 6 9 17
13 9 7 7 7 8 10 11 12 6 10 5 2 2 2 3 11 12 7 8 7 4 4 5 6 3 2 3 4 5 3 3 4 6 6 7 6 7 8 5 5 11 8 6 8 12 14
11 10 7 7 7 7 10 10 8 6 10 8 1 2 2 3 7 13 13 14 13 8 3 3 2 3 2 1 2 6 4 2 4 1 5 3 5 2 2 2 8 9 11 7 8 11 13
Wind_Direction
342 345 343 345 346 343 342 342 341 340 337 335 334 335 335 331 328 326 324 324 320 312 303 302 307 317 305 238 254 118 149 144 168 201 218 237 248 229 224 231 229 240 235 233 250 265 212
341 343 342 341 336 337 340 338 337 334 334 331 330 330 330 326 324 321 318 315 312 305 296 291 295 307 255 265 145 138 154 162 189 196 212 242 253 246 249 246 232 234 236 244 246 265 260
343 340 339 338 339 338 336 336 336 334 331 328 326 323 324 323 321 320 314 308 305 300 288 276 276 271 264 251 312 149 167 207 224 213 250 249 271 297 269 267 265 245 258 228 249 221 244
340 337 336 335 333 331 331 335 334 332 329 327 326 321 320 322 319 318 314 310 299 299 282 262 252 258 260 283 285 225 195 218 233 232 259 275 298 283 271 278 298 252 251 256 229 227 226
331 332 330 331 330 326 326 329 328 327 327 325 322 319 317 318 317 318 313 305 303 291 243 228 226 221 261 175 231 235 233 222 212 228 238 307 264 260 262 251 248 231 246 232 251 215 193
318 322 325 326 323 325 324 323 323 322 323 321 318 316 314 313 312 315 313 293 301 167 196 204 261 252 241 235 201 197 221 231 242 221 223 218 236 236 236 247 239 225 217 234 252 155 190
312 316 319 321 321 321 318 318 318 318 317 317 316 315 314 310 311 314 316 268 201 193 216 223 192 252 127 153 91 245 194 210 243 229 234 220 235 234 236 222 247 284 306 313 310 22 285
303 307 309 313 314 313 314 313 312 315 315 314 314 314 312 311 309 303 291 242 302 325 297 223 241 228 262 289 188 201 187 211 221 233 216 251 228 252 265 272 298 299 291 284 290 295 284
300 301 303 305 307 308 310 310 311 313 314 313 312 313 313 313 312 285 216 248 281 297 281 293 202 220 217 219 245 181 182 209 229 231 248 242 246 222 282 295 278 259 264 276 283 286 305
295 297 300 302 302 303 306 309 314 315 316 315 315 316 318 325 293 293 223 283 276 319 272 151 165 173 187 197 229 226 188 211 237 256 248 255 255 261 195 247 255 252 246 245 264 282 269
294 299 300 299 301 304 308 309 312 315 315 316 315 318 318 320 305 283 355 307 336 252 276 196 113 124 152 192 116 194 180 221 241 255 251 265 247 251 265 256 260 262 312 324 297 280 284
293 295 295 294 300 306 307 310 315 317 315 315 314 316 327 231 213 257 282 306 265 233 289 188 133 182 177 227 200 138 200 218 259 251 273 275 281 307 265 250 275 314 294 286 273 259 255
293 297 298 299 305 307 306 314 314 314 314 314 314 309 313 291 291 330 322 270 249 263 195 96 120 170 200 190 225 181 191 203 230 245 244 266 270 267 289 269 260 258 237 259 267 233 252
304 306 302 305 305 304 307 312 316 316 316 317 314 309 263 233 271 298 290 262 265 305 30 75 302 285 258 257 225 210 217 233 225 245 283 262 274 267 288 271 266 285 287 265 264 302 305
308 308 305 305 308 309 313 317 318 321 319 319 310 290 239 227 245 278 277 254 285 337 27 345 320 263 261 147 342 246 311 287 276 257 237 303 264 344 256 266 302 249 269 10 296 275 278
304 306 306 307 308 309 314 317 319 323 322 316 313 288 263 117 237 268 263 271 317 68 14 329 293 320 316 177 241 192 221 196 294 252 209 303 307 284 259 287 271 268 290 293 263 296 263
306 306 304 304 303 311 317 317 321 326 327 310 266 244 104 249 194 247 249 249 223 65 48 326 332 315 311 313 260 267 281 274 243 222 211 242 237 273 312 257 252 292 232 238 278 241 259
306 302 299 301 307 313 315 319 325 333 336 325 291 265 111 223 237 239 264 32 42 311 315 315 301 298 300 315 296 292 285 219 278 291 218 106 292 278 272 257 270 290 268 247 210 248 257
300 298 297 302 306 312 314 319 323 337 9 325 284 292 125 212 267 316 218 336 312 250 335 315 281 297 313 288 302 288 306 94 270 247 9 79 246 280 262 244 238 237 280 259 254 261 265
296 294 292 296 304 311 312 318 321 326 353 322 280 286 171 199 216 326 348 310 288 115 319 354 324 315 309 293 266 272 284 353 205 143 89 324 263 251 278 292 212 281 281 272 263 258 272
301 292 289 293 303 307 310 316 319 317 335 293 243 13 26 311 53 345 301 307 290 326 25 355 295 33 346 290 324 315 16 5 306 184 223 234 264 276 280 282 281 275 271 271 271 272 271
304 303 289 279 289 298 310 317 317 319 327 238 300 350 347 290 278 302 270 359 338 338 315 310 299 14 327 286 321 308 333 312 288 263 256 227 261 279 277 275 262 262 267 267 262 268 265
296 296 290 274 274 283 297 306 309 325 336 302 344 317 268 298 265 227 29 24 301 280 299 335 347 313 287 321 295 308 303 294 273 273 275 305 278 303 267 273 284 273 276 302 7 330 350
279 278 283 268 262 275 287 301 302 316 331 311 313 313 311 279 280 291 332 301 306 321 287 294 296 268 303 329 307 277 258 253 255 249 245 239 271 261 281 296 276 316 22 26 7 351 5
278 276 275 260 257 265 278 289 290 291 298 291 308 329 311 291 319 309 338 337 325 306 274 289 309 4 342 310 298 280 231 228 232 233 229 217 228 262 258 266 287 270 48 25 10 1 27
287 276 262 249 252 259 274 282 275 269 262 279 289 314 328 291 4 355 318 314 313 317 296 266 2 322 300 305 313 273 266 251 205 179 202 202 216 208 270 261 284 79 159 1 307 265 8
301 279 277 246 242 261 275 280 279 247 221 249 321 310 287 288 294 357 358 328 323 338 281 293 334 325 332 205 254 258 254 129 223 165 171 189 194 229 242 241 271 24 350 335 275 346 346
326 280 269 268 269 271 280 282 284 241 210 182 308 351 300 238 295 299 291 260 256 240 256 11 279 13 156 211 253 264 304 352 279 135 153 200 196 198 231 245 246 15 26 29 9 341 336
306 309 293 284 270 286 283 280 283 251 213 173 224 65 47 259 295 318 285 269 252 269 162 220 20 217 235 269 271 302 313 336 309 205 138 228 189 228 267 126 81 67 80 43 357 344 344